Simultaneous Nadir Overpasses (SNOs) Predictions

Prediction of SNOs between AQUA and NOAA-19 Satellite Orbit:

Table of predicted SNOs for the next 14.0 days since TLE Epoch: 8/26/2022
Index Date (AQUA) Time (AQUA) Lat,Lon (AQUA) SZA (AQUA ) Date (NOAA-19) Time (NOAA-19) Lat,Lon (NOAA-19) SZA (NOAA-19 ) Distance(km) Time Diff (sec)
1 08/27/2022 16:42:36 77.04, -84.45 67.50 08/27/2022 16:41:29 76.98, -87.15 67.63 68.08 67
2 08/27/2022 17:32:09 -77.39, 81.86 112.09 08/27/2022 17:32:25 -77.37, 81.92 112.11 2.17 16
3 08/29/2022 23:05:19 77.34, 178.77 68.64 08/29/2022 23:05:12 77.35, 178.71 68.66 2.11 7
4 09/01/2022 04:38:29 -77.33, -84.48 110.59 09/01/2022 04:38:10 -77.33, -84.57 110.58 2.25 19
5 09/01/2022 05:27:55 77.36, 83.04 69.47 09/01/2022 05:29:02 77.39, 83.02 69.49 3.49 67
6 09/03/2022 10:11:38 77.30, 12.35 70.19 09/03/2022 10:10:56 77.32, 12.27 70.22 2.67 42
7 09/03/2022 11:01:05 -77.36, 179.77 109.74 09/03/2022 11:02:00 -77.35, 179.67 109.75 2.49 55
8 09/05/2022 15:44:48 -77.30, 109.07 109.01 09/05/2022 15:43:53 -77.30, 109.04 108.99 0.79 55
9 09/05/2022 16:34:15 77.34, -83.44 71.06 09/05/2022 16:34:47 77.36, -83.44 71.06 1.69 32
10 09/07/2022 21:17:56 77.20,-153.82 71.70 09/07/2022 21:16:45 77.11,-154.99 71.70 30.60 71
11 09/07/2022 22:07:25 -77.34, 13.26 108.12 09/07/2022 22:07:44 -77.32, 13.23 108.15 2.96 19



Historial Predications of SNOs between AQUA and NOAA-19
